Weather in Ilet'

Russia / Mari El Republic     56°06′49″N   48°21′09″E
temp.,
°C
wind,
m/s
gust,
m/s
humid.,
%
clouds,
%
prec.,
mm/h
press.,
hPa
HPBL,
m
19 may, wed
wed1900:00+16e378098 0.1 1016116
03:00+15ese3118411 0.1 1017262
06:00+17ese512745 0.0 1017406
09:00+22ese79545 0.0 1017747
12:00+25ese68434 0.0 10171238
15:00+25se68460 0.0 10171345
18:00+22ese510594 0.0 1016433
21:00+18ese413730 0.0 1016283
20 may, thu
thu2000:00+17ese4137726 0.0 1016283
03:00+16ese412765 0.0 1015278
06:00+18ese514713 0.0 1015482
09:00+22se711550 0.0 10141231
12:00+23se8115129 0.0 10131688
15:00+24ese7115020 0.0 10112174
18:00+19sse51271100 0.6 1010435
21:00+15sse499596 5.9 1011480
21 may, fri
fri2100:00+13sse4109694 0.0 1011330
03:00+12se39978 0.0 1011267
06:00+14s488921 0.0 1012341
09:00+18ssw67735 1.5 10121033
12:00+18sw587681 2.3 10131125
15:00+19sw696312 3.0 10131230
18:00+17sw6107358 0.4 1014669
21:00+13sw4119073 0.6 1016339
22 may, sat
sat2200:00+12w4109592 0.0 1017398
03:00+10sw249683 0.0 101885
06:00+13ssw2585100 0.0 1020248
09:00+15sw3479100 0.1 1021371
12:00+14sw3487100 1.6 1021419
15:00+15sw4583100 2.5 1022658
18:00+14ssw2390100 0.3 1021278
21:00+12sw119599 0.3 102111
23 may, sun
sun2300:00+10sse2296100 0.0 102222
03:00+9ese2297100 0.0 102133
06:00+12ese2693100 0.0 1022260
09:00+15ese3486100 0.1 1021479
12:00+19se5874100 0.1 1020798
15:00+20se4876100 0.4 1018563
18:00+20e3583100 0.0 1017217
21:00+17ese41194100 0.0 1015234